| time (UTC) | temp C | wind direction | speed KPH | gust KPH | rain 1hr cm | rain 24hr cm | rain mn cm | humidity % | barometer mb |
| 20260505072109 | 18 | 191 | 3.2 | 6.4 | 0.00 | 0.00 | 0.00 | 68 | 1008.9 |
| 20260505071033 | 18 | 192 | 1.6 | 4.8 | 0.00 | 0.00 | 0.00 | 67 | 1008.9 |
| 20260505070021 | 18 | 211 | 3.2 | 9.7 | 0.00 | 0.00 | 0.00 | 66 | 1009.2 |
| 20260505065025 | 18 | 208 | 4.8 | 14.5 | 0.00 | 0.00 | 0.00 | 65 | 1009.3 |
| 20260505064030 | 18 | 198 | 4.8 | 11.3 | 0.00 | 0.00 | 0.00 | 66 | 1009.4 |
| 20260505063019 | 18 | 216 | 3.2 | 6.4 | 0.00 | 0.00 | 0.00 | 65 | 1009.3 |
| 20260505062023 | 18 | 209 | 4.8 | 11.3 | 0.00 | 0.00 | 0.00 | 64 | 1009.3 |
| 20260505061028 | 18 | 177 | 4.8 | 11.3 | 0.00 | 0.00 | 0.00 | 64 | 1008.9 |
| 20260505060037 | 18 | 209 | 4.8 | 11.3 | 0.00 | 0.00 | 0.00 | 64 | 1009.1 |
| 20260505055021 | 18 | 196 | 4.8 | 12.9 | 0.00 | 0.00 | 0.00 | 63 | 1009.4 |
| 20260505054027 | 19 | 201 | 4.8 | 9.7 | 0.00 | 0.00 | 0.00 | 63 | 1009.7 |
| 20260505053052 | 19 | 187 | 3.2 | 11.3 | 0.00 | 0.00 | 0.00 | 63 | 1009.7 |
| 20260505052020 | 19 | 202 | 4.8 | 9.7 | 0.00 | 0.00 | 0.00 | 63 | 1009.7 |
| 20260505051024 | 19 | 185 | 4.8 | 9.7 | 0.00 | 0.00 | 0.00 | 63 | 1009.9 |
| 20260505041020 | 21 | 203 | 9.7 | 14.5 | 0.00 | 0.00 | 0.00 | 58 | 1009.6 |
| 20260505040025 | 21 | 196 | 6.4 | 16.1 | 0.00 | 0.00 | 0.00 | 58 | 1009.9 |
| 20260505035030 | 21 | 201 | 6.4 | 11.3 | 0.00 | 0.00 | 0.00 | 57 | 1009.9 |
| 20260505034059 | 21 | 205 | 3.2 | 9.7 | 0.00 | 0.00 | 0.00 | 58 | 1009.9 |
| 20260505033023 | 20 | 193 | 6.4 | 11.3 | 0.00 | 0.00 | 0.00 | 57 | 1010.1 |
| 20260505032028 | 20 | 203 | 3.2 | 6.4 | 0.00 | 0.00 | 0.00 | 58 | 1010.0 |
| 20260505031053 | 21 | 215 | 3.2 | 6.4 | 0.00 | 0.00 | 0.00 | 57 | 1009.8 |
| 20260505030021 | 21 | 219 | 3.2 | 6.4 | 0.00 | 0.00 | 0.00 | 57 | 1009.8 |
| 20260505025026 | 21 | 209 | 3.2 | 6.4 | 0.00 | 0.00 | 0.00 | 57 | 1009.6 |
| 20260505024031 | 21 | 224 | 3.2 | 6.4 | 0.00 | 0.00 | 0.00 | 55 | 1009.6 |
| 20260505023039 | 21 | 216 | 3.2 | 9.7 | 0.00 | 0.00 | 0.00 | 55 | 1009.5 |
| 20260505022023 | 21 | 234 | 3.2 | 6.4 | 0.00 | 0.00 | 0.00 | 54 | 1009.2 |
| 20260505021028 | 22 | 207 | 4.8 | 9.7 | 0.00 | 0.00 | 0.00 | 53 | 1009.2 |
| 20260505020016 | 22 | 205 | 4.8 | 11.3 | 0.00 | 0.00 | 0.00 | 53 | 1008.9 |
| 20260505015022 | 22 | 197 | 4.8 | 9.7 | 0.00 | 0.00 | 0.00 | 52 | 1008.6 |
| 20260505014027 | 22 | 198 | 4.8 | 12.9 | 0.00 | 0.00 | 0.00 | 51 | 1008.5 |
| 20260505013031 | 22 | 200 | 4.8 | 11.3 | 0.00 | 0.00 | 0.00 | 51 | 1008.7 |
| 20260505012100 | 22 | 187 | 4.8 | 11.3 | 0.00 | 0.00 | 0.00 | 50 | 1008.5 |
| 20260505011045 | 22 | 232 | 4.8 | 9.7 | 0.00 | 0.00 | 0.00 | 50 | 1008.4 |
| 20260505010049 | 23 | 198 | 6.4 | 12.9 | 0.00 | 0.00 | 0.00 | 49 | 1008.2 |
| 20260505005017 | 23 | 197 | 4.8 | 9.7 | 0.00 | 0.00 | 0.00 | 49 | 1008.0 |
| 20260505004043 | 23 | 190 | 4.8 | 6.4 | 0.00 | 0.00 | 0.00 | 48 | 1008.3 |
| 20260505003027 | 23 | 204 | 4.8 | 12.9 | 0.00 | 0.00 | 0.00 | 47 | 1008.3 |
| 20260505002033 | 24 | 201 | 8.0 | 17.7 | 0.00 | 0.00 | 0.00 | 46 | 1008.4 |
| 20260505001020 | 24 | 201 | 6.4 | 14.5 | 0.00 | 0.00 | 0.00 | 46 | 1008.5 |
| 20260505000025 | 25 | 221 | 8.0 | 16.1 | 0.00 | 0.00 | 0.00 | 45 | 1008.4 |
| 20260504235050 | 25 | 203 | 8.0 | 24.1 | 0.00 | 0.00 | 0.00 | 45 | 1008.4 |
| 20260504234018 | 25 | 201 | 8.0 | 22.5 | 0.00 | 0.00 | 0.00 | 45 | 1008.6 |
| 20260504233023 | 25 | 204 | 8.0 | 24.1 | 0.00 | 0.00 | 0.00 | 45 | 1008.8 |
| 20260504232028 | 25 | 221 | 11.3 | 30.6 | 0.00 | 0.00 | 0.00 | 45 | 1008.9 |
| 20260504231016 | 25 | 214 | 8.0 | 17.7 | 0.00 | 0.00 | 0.00 | 44 | 1009.0 |
| 20260504230021 | 26 | 212 | 8.0 | 17.7 | 0.00 | 0.00 | 0.00 | 43 | 1009.1 |
| 20260504225026 | 26 | 205 | 8.0 | 22.5 | 0.00 | 0.00 | 0.00 | 43 | 1009.0 |
| 20260504224030 | 26 | 199 | 6.4 | 12.9 | 0.00 | 0.00 | 0.00 | 43 | 1009.2 |
| 20260504223018 | 27 | 212 | 8.0 | 16.1 | 0.00 | 0.00 | 0.00 | 41 | 1009.2 |
| 20260504222024 | 26 | 239 | 11.3 | 27.4 | 0.00 | 0.00 | 0.00 | 40 | 1009.3 |
| 20260504221029 | 26 | 195 | 8.0 | 16.1 | 0.00 | 0.00 | 0.00 | 41 | 1009.3 |
| 20260504220017 | 26 | 220 | 6.4 | 14.5 | 0.00 | 0.00 | 0.00 | 42 | 1009.4 |
| 20260504215021 | 26 | 200 | 8.0 | 20.9 | 0.00 | 0.00 | 0.00 | 41 | 1009.6 |
| 20260504214027 | 27 | 241 | 8.0 | 24.1 | 0.00 | 0.00 | 0.00 | 42 | 1009.3 |
| 20260504213032 | 27 | 225 | 6.4 | 17.7 | 0.00 | 0.00 | 0.00 | 42 | 1009.4 |
| 20260504212041 | 27 | 201 | 6.4 | 17.7 | 0.00 | 0.00 | 0.00 | 42 | 1009.6 |
| 20260504211024 | 27 | 204 | 8.0 | 17.7 | 0.00 | 0.00 | 0.00 | 41 | 1009.6 |
| 20260504210029 | 26 | 211 | 9.7 | 25.7 | 0.00 | 0.00 | 0.00 | 41 | 1009.5 |
| 20260504205018 | 27 | 233 | 8.0 | 20.9 | 0.00 | 0.00 | 0.00 | 40 | 1009.4 |
| 20260504204023 | 26 | 210 | 11.3 | 25.7 | 0.00 | 0.00 | 0.00 | 41 | 1009.4 |
| 20260504203028 | 27 | 214 | 9.7 | 24.1 | 0.00 | 0.00 | 0.00 | 40 | 1009.2 |
| 20260504202033 | 27 | 215 | 8.0 | 17.7 | 0.00 | 0.00 | 0.00 | 42 | 1009.4 |
| 20260504201020 | 26 | 228 | 9.7 | 16.1 | 0.00 | 0.00 | 0.00 | 40 | 1009.4 |
| 20260504200026 | 26 | 226 | 11.3 | 24.1 | 0.00 | 0.00 | 0.00 | 42 | 1009.5 |
| 20260504195031 | 26 | 235 | 11.3 | 30.6 | 0.00 | 0.00 | 0.00 | 42 | 1009.6 |
| 20260504194018 | 26 | 204 | 11.3 | 29.0 | 0.00 | 0.00 | 0.00 | 41 | 1009.8 |
| 20260504193023 | 27 | 210 | 9.7 | 24.1 | 0.00 | 0.00 | 0.00 | 42 | 1009.8 |
| 20260504192049 | 26 | 201 | 9.7 | 22.5 | 0.00 | 0.00 | 0.00 | 43 | 1009.8 |
| 20260504191033 | 27 | 208 | 9.7 | 25.7 | 0.00 | 0.00 | 0.00 | 43 | 1010.0 |
| 20260504185026 | 27 | 242 | 11.3 | 29.0 | 0.00 | 0.00 | 0.00 | 41 | 1010.4 |
| 20260504184031 | 27 | 238 | 14.5 | 37.0 | 0.00 | 0.00 | 0.00 | 41 | 1010.5 |
| 20260504183020 | 26 | 202 | 9.7 | 17.7 | 0.00 | 0.00 | 0.00 | 43 | 1010.5 |
| 20260504182024 | 26 | 209 | 8.0 | 17.7 | 0.00 | 0.00 | 0.00 | 43 | 1010.7 |
| 20260504181029 | 26 | 231 | 8.0 | 24.1 | 0.00 | 0.00 | 0.00 | 44 | 1010.9 |
| 20260504180017 | 26 | 235 | 11.3 | 27.4 | 0.00 | 0.00 | 0.00 | 44 | 1011.0 |
| 20260504175022 | 26 | 232 | 11.3 | 22.5 | 0.00 | 0.00 | 0.00 | 46 | 1011.3 |
| 20260504174026 | 26 | 221 | 8.0 | 22.5 | 0.00 | 0.00 | 0.00 | 48 | 1011.5 |
| 20260504173053 | 26 | 229 | 14.5 | 30.6 | 0.00 | 0.00 | 0.00 | 47 | 1011.5 |
| 20260504172020 | 25 | 226 | 8.0 | 17.7 | 0.00 | 0.00 | 0.00 | 48 | 1011.6 |
| 20260504171025 | 25 | 229 | 11.3 | 24.1 | 0.00 | 0.00 | 0.00 | 49 | 1011.4 |
| 20260504151016 | 22 | 230 | 6.4 | 12.9 | 0.00 | 0.00 | 0.00 | 62 | 1012.4 |
| 20260504141029 | 20 | 195 | 6.4 | 12.9 | 0.00 | 0.00 | 0.00 | 67 | 1012.9 |
| 20260504081021 | 15 | 189 | 4.8 | 4.8 | 0.00 | 0.00 | 0.00 | 69 | 1012.2 |